Regional Weather Roundup
Issued by NWS

Home | Current Version | Previous Version | Graphics & Text | Print | Product List | Glossary Off
Versions: 1 2 3 4 5 6 7 8 9 10 11 12 13 14 15 16 17 18 19 20 21 22 23 24 25 26 27 28 29 30 31 32 33 34 35 36 37 38 39 40 41 42 43 44 45 46 47 48 49 50

000
ASUS43 KTOP 180959
RWRKS

WEATHER ROUNDUP FOR KANSAS
NATIONAL WEATHER SERVICE GOODLAND KS
500 AM CDT FRI APR 18 2014

NOTE:  "FAIR" INDICATES FEW OR NO CLOUDS BELOW 12,000 FEET WITH NO
SIGNIFICANT WEATHER AND/OR OBSTRUCTIONS TO VISIBILITY.

KSZ001>006-013>018-027>032-041>047-181100-
NORTHWEST KANSAS

CITY           SKY/WX    TMP DP  RH WIND       PRES   REMARKS
GOODLAND       CLEAR     36  33  89 S17       30.09F WCI  26
HAYS           CLEAR     36  32  87 S8        30.19F
HILL CITY      CLEAR     38  35  89 VRB3      30.18S
RUSSELL        CLEAR     36  34  92 S9        30.19S
$$

KSZ061>065-074>080-084>089-181100-
SOUTHWEST KANSAS

CITY           SKY/WX    TMP DP  RH WIND       PRES   REMARKS
DODGE CITY     CLOUDY    41  37  86 S10       30.21S
ELKHART          N/A     37  27  67 S13         N/A  WCI  29
GARDEN CITY    CLOUDY    40  37  89 S10       30.18F FOG     WCI  33
GREAT BEND     CLEAR     34  30  86 S6        30.21F
LIBERAL        CLOUDY    43  37  81 SW9       30.22S
$$

KSZ066>073-081>083-090>101-181100-
SOUTHEAST KANSAS

CITY           SKY/WX    TMP DP  RH WIND       PRES   REMARKS
CHANUTE        CLEAR     32  32 100 CALM      30.27S FOG
COFFEYVILLE    CLEAR     35  33  92 N5        30.26F FOG
HUTCHINSON     CLEAR     32  30  92 CALM      30.23F FOG
NEWTON         CLEAR     36  28  75 S3        30.27R
PARSONS        CLEAR     35  33  92 CALM      30.27F FOG
WICHITA INTL   CLEAR     34  31  88 CALM      30.25S FOG
WICHITA JABRA  CLEAR     34  32  92 CALM      30.25S FOG
WICHITA MCCONL CLEAR     37  37 100 CALM      30.25S
WINFIELD       CLEAR     30  28  92 CALM      30.27S FOG
$$

KSZ007>012-019>026-033>040-048>060-102>105-181100-
NORTHEAST KANSAS

CITY           SKY/WX    TMP DP  RH WIND       PRES   REMARKS
CONCORDIA      CLEAR     36  32  85 E3        30.23S FOG
EMPORIA        CLEAR     29  28  96 SE3       30.26S FOG
LAWRENCE       CLEAR     29  27  92 CALM      30.28S FOG
MANHATTAN      CLOUDY    31  29  92 CALM      30.26S FOG
OLATHE IND     CLEAR     32  29  88 CALM      30.28S FOG
OLATHE EXE     CLEAR     34  31  88 CALM      30.27R FOG
SALINA         CLEAR     34  29  82 SE3       30.24F HAZE
TOPEKA BILLARD CLEAR     35  31  85 CALM      30.28S FOG
TOPEKA FORBES  CLEAR     31  27  85 SE3       30.26S FOG
$$



USA.gov is the U.S. government's official web portal to all federal, state and local government web resources and services.